Theta_e
315 328 333 337 341 344 348 348 345 345 346 345 346 349 353 352 358 365 355 352 353 350 336 328 334 341 344 344 342 333 332 330 331 337 342 342 342 340 339 339 339 340 340 341 342 343 344 345 345
321 332 332 337 341 351 350 345 347 346 347 345 346 348 353 356 355 354 351 349 352 352 347 332 328 339 344 344 344 337 332 332 330 334 337 339 342 340 338 339 340 340 341 341 341 342 342 343 344
322 329 333 336 339 345 347 345 343 342 342 343 345 347 349 354 352 353 350 351 348 352 353 343 325 337 343 343 342 334 333 335 332 331 334 337 341 340 337 340 342 342 342 342 342 341 342 341 340
332 333 334 336 340 341 339 342 338 343 342 342 346 346 348 347 351 350 348 348 347 357 354 349 330 328 339 344 342 338 333 338 337 333 332 335 338 338 335 336 337 340 341 342 343 342 340 340 339
329 331 333 334 340 338 340 341 340 343 343 340 345 351 351 348 351 350 351 347 348 358 354 342 337 325 332 340 344 342 337 341 341 335 333 333 335 334 333 334 335 336 337 338 340 339 339 339 338
329 330 331 331 339 337 334 339 338 339 337 338 347 348 342 339 349 351 351 347 346 352 352 341 339 330 324 330 339 341 342 343 341 336 335 335 333 332 332 333 334 335 335 336 338 338 338 338 338
327 329 329 328 333 334 333 333 340 339 334 335 346 350 337 335 346 353 349 348 347 347 352 350 344 335 326 326 331 337 339 339 338 338 336 335 334 334 334 335 334 333 334 334 336 337 337 337 338
326 326 326 328 329 332 331 332 336 336 336 334 330 342 335 333 346 348 348 348 347 346 352 352 351 346 332 327 328 330 334 337 337 337 337 337 337 335 333 331 330 329 330 331 332 335 336 337 337
325 324 326 330 331 332 331 331 334 332 334 332 330 344 337 344 346 345 346 344 348 346 348 352 351 350 346 342 329 328 330 332 336 337 336 333 331 336 337 335 334 336 337 337 333 332 335 335 336
325 326 327 329 329 330 329 328 329 329 331 329 329 345 344 342 342 339 341 350 348 341 341 341 351 351 350 348 344 338 337 333 333 339 342 333 337 341 343 347 346 345 344 341 333 331 331 335 341
326 326 328 328 327 327 327 326 327 328 328 328 325 330 337 339 339 340 341 334 340 344 334 345 349 349 350 352 348 350 350 349 349 349 349 353 353 355 352 347 346 345 347 347 340 341 343 344 340
324 327 326 325 324 324 324 325 326 325 324 326 329 331 332 334 334 334 331 329 327 338 338 328 347 350 352 342 339 350 350 351 353 354 352 348 342 346 347 346 345 348 347 348 346 337 327 343 335
324 325 324 324 323 324 324 324 326 325 325 326 328 329 330 331 331 330 333 340 342 334 337 349 351 352 355 352 348 344 341 338 338 336 335 333 331 332 331 330 332 332 331 335 345 342 341 333 338
326 324 324 324 324 323 324 323 325 326 325 326 326 327 327 328 331 333 332 347 352 350 350 349 349 351 353 349 346 342 336 334 331 330 331 331 331 328 329 328 329 328 331 330 329 330 332 336 341
324 323 323 323 323 323 323 324 325 326 326 327 327 328 329 333 333 332 331 340 345 348 348 345 343 342 342 342 338 335 333 330 328 329 325 327 325 323 322 326 327 328 326 326 327 331 331 332 331
324 325 325 325 324 323 323 324 327 326 326 327 328 328 331 333 333 332 331 332 338 343 344 342 339 338 336 335 333 331 329 329 328 327 327 326 325 321 324 323 324 321 322 323 325 327 328 328 330
325 325 326 327 326 325 324 327 328 327 327 328 328 330 331 332 332 332 332 333 335 338 337 337 336 336 334 331 332 330 328 328 327 326 326 324 325 325 326 325 324 320 323 323 325 325 320 325 324
327 327 327 327 326 325 324 328 329 328 327 328 329 330 331 331 331 331 331 333 333 334 334 334 334 332 332 331 327 328 327 325 326 325 325 325 326 325 326 327 327 326 325 326 326 322 323 324 325
326 326 326 325 327 326 326 324 329 329 327 328 328 329 329 330 330 330 331 332 333 333 333 332 333 333 332 332 332 330 330 327 325 324 325 325 327 327 328 327 326 326 326 326 327 328 325 324 323
323 324 325 325 326 326 325 325 325 329 328 328 327 327 327 327 327 326 327 327 330 331 331 330 331 331 332 332 328 330 331 329 327 328 328 328 328 327 327 327 327 327 326 326 323 328 326 326 322
325 326 326 326 326 326 326 326 326 329 328 327 326 325 325 325 325 325 324 323 323 324 325 326 326 325 327 327 327 326 325 326 326 327 326 327 327 326 328 328 328 326 328 327 326 328 326 324 324
325 324 324 325 323 323 324 325 326 330 329 327 326 325 325 325 324 323 323 322 321 321 320 320 321 321 320 322 323 324 327 326 324 323 323 323 323 327 327 326 325 326 326 327 326 325 326 324 323
324 321 320 320 320 321 321 321 323 331 330 329 327 326 325 324 323 322 322 321 320 320 319 319 319 319 319 317 318 321 322 323 322 321 321 322 321 322 320 318 319 324 325 327 326 326 327 325 324
323 321 322 322 322 324 324 323 326 329 328 326 327 326 325 324 322 321 320 320 319 318 318 318 317 319 318 317 317 317 318 319 321 323 323 322 320 319 320 320 321 320 324 325 325 325 325 324 324
323 322 323 327 327 326 323 323 324 327 326 325 323 323 323 322 321 320 320 319 318 317 316 316 316 316 316 316 317 316 316 317 317 318 320 320 320 318 318 319 317 317 319 321 322 323 325 324 324
320 321 320 327 326 322 322 322 328 327 324 323 323 322 321 321 321 320 320 319 316 316 316 317 316 315 315 315 316 316 316 316 316 316 317 318 318 319 317 316 317 317 317 319 319 321 322 322 323
321 322 321 321 322 324 323 327 326 325 324 323 321 321 321 322 322 320 318 317 317 316 315 313 312 312 313 313 312 314 315 317 315 315 315 314 313 313 313 313 314 313 313 314 316 318 320 322 321
320 320 320 329 327 323 320 321 325 324 323 322 320 320 321 322 320 319 318 317 314 314 313 311 313 313 313 314 314 315 315 314 315 313 312 312 312 312 311 311 311 311 311 312 315 316 317 319 322
324 324 322 324 324 326 325 323 324 324 322 321 321 320 320 320 318 317 316 314 313 312 311 312 313 313 312 312 312 312 312 311 311 311 311 310 310 310 309 309 310 311 311 312 312 313 314 316 318
318 318 321 327 326 326 326 326 324 323 322 322 321 319 318 317 316 315 313 313 312 312 313 312 312 312 311 310 310 310 311 310 309 310 310 309 309 310 309 309 309 309 310 310 311 312 314 315 316
Wind_Speed
16 11 8 12 7 1 16 9 5 10 5 12 15 13 20 17 13 6 12 15 19 18 12 11 9 9 11 14 11 12 13 12 12 12 11 9 9 9 9 8 7 7 8 7 7 7 7 7 7
12 15 16 7 11 5 5 11 11 2 11 11 9 15 15 16 16 16 13 8 22 19 14 10 9 8 11 13 11 11 12 12 11 11 11 9 7 7 8 7 6 6 6 6 5 5 4 4 4
14 11 7 7 5 3 4 11 14 13 21 10 10 17 9 10 13 10 15 11 15 21 18 10 10 9 10 12 12 11 13 11 10 10 10 9 8 6 6 6 4 4 4 3 3 3 1 1 1
8 10 7 10 3 8 6 3 3 22 11 11 16 13 18 14 13 18 15 13 12 20 16 12 9 9 9 11 12 13 14 11 10 10 10 9 9 8 7 5 5 4 3 2 2 2 2 2 2
16 8 13 10 10 10 10 18 11 24 8 9 4 19 20 27 12 12 9 6 11 22 15 14 11 11 11 10 11 13 14 13 11 11 11 10 10 9 8 7 6 5 5 5 5 5 5 5 5
10 13 16 12 13 22 2 13 4 23 18 16 17 21 10 25 9 8 10 8 7 17 14 11 12 11 11 11 11 11 13 13 13 12 11 11 10 10 9 8 7 7 8 8 9 9 9 8 8
13 14 18 21 9 8 16 6 15 12 17 13 18 12 8 21 12 12 9 10 10 11 14 10 12 14 12 12 12 13 13 13 13 13 13 12 12 11 10 10 9 10 11 11 12 12 12 12 12
12 13 22 16 6 10 11 2 15 12 7 1 10 10 6 21 10 13 14 13 9 10 15 12 12 12 12 14 14 14 13 14 14 14 13 12 12 13 12 13 13 12 14 14 15 15 15 15 15
13 12 14 15 13 7 5 1 9 5 11 7 7 20 17 13 13 15 10 21 12 8 12 16 15 14 15 13 14 14 13 13 13 13 14 14 14 12 13 13 10 11 14 17 17 17 18 18 19
10 12 14 3 15 8 10 10 13 10 13 16 16 24 25 14 8 4 6 21 13 21 19 35 22 16 20 14 11 10 9 9 8 8 9 10 11 13 17 15 15 13 15 17 19 18 18 19 21
12 9 9 9 12 13 13 4 16 16 13 11 9 12 10 12 6 19 27 34 29 9 12 21 11 14 14 17 11 10 11 8 8 10 13 4 11 12 13 17 19 16 14 15 14 16 17 11 16
15 6 12 11 10 8 4 12 16 9 9 8 14 9 6 6 2 11 23 20 29 27 18 27 20 6 6 9 4 11 13 10 11 9 7 5 6 10 7 7 9 14 16 16 13 18 23 21 14
13 6 5 4 0 7 8 10 13 7 8 10 7 4 11 16 20 23 27 13 32 24 12 7 16 6 6 9 11 8 8 7 8 4 5 3 2 6 2 10 10 11 17 14 7 14 10 20 7
10 2 4 3 8 2 4 3 3 6 2 6 5 7 11 12 21 25 27 22 17 14 13 15 13 10 6 3 7 4 5 5 6 6 2 2 5 5 3 5 6 10 10 12 15 15 15 12 14
5 7 8 6 4 4 7 8 6 1 2 4 6 8 10 17 23 21 22 20 19 15 12 13 11 8 9 8 1 1 5 7 6 4 4 3 2 2 1 7 8 10 11 13 17 15 15 16 16
12 13 13 14 7 7 2 4 11 2 1 5 5 8 13 17 19 18 19 19 20 17 15 12 12 8 6 8 4 3 3 2 4 4 3 5 3 3 2 3 5 7 6 11 13 15 19 19 20
10 11 11 10 11 10 8 6 9 2 3 4 4 8 11 13 16 17 18 19 18 20 19 15 11 11 8 7 8 4 3 1 3 3 5 4 3 0 2 2 3 6 8 9 10 11 14 18 19
11 6 13 12 13 6 8 9 13 6 2 4 5 7 9 10 13 16 17 17 17 15 12 10 9 10 9 5 7 5 5 5 4 6 3 3 3 3 2 5 2 7 7 6 10 12 13 17 21
12 13 12 12 8 1 8 15 11 12 3 6 4 7 7 8 10 12 14 14 15 16 14 13 14 12 14 13 12 11 7 11 7 9 6 3 2 3 3 5 5 7 8 10 10 8 11 15 16
13 15 13 12 3 4 7 16 10 12 8 3 2 7 6 8 9 9 10 12 11 10 10 12 12 13 15 17 18 18 16 17 15 10 0 4 6 7 6 6 6 8 10 10 14 11 11 11 16
12 14 11 13 16 12 10 16 14 15 11 9 4 6 6 5 5 5 8 9 10 7 5 7 8 11 12 15 14 15 16 18 18 17 16 15 14 15 8 11 14 14 14 16 15 11 11 15 14
10 13 14 13 12 12 16 13 8 18 12 10 9 6 4 4 2 4 5 6 6 4 7 4 3 5 12 13 15 17 15 15 18 19 19 17 12 13 12 15 18 20 19 19 22 22 17 15 14
12 14 13 13 12 13 15 10 6 16 12 14 12 8 3 1 5 9 9 9 9 12 11 11 6 7 8 11 17 20 20 19 21 24 23 20 20 19 21 24 24 24 23 21 22 23 17 16 14
9 12 15 14 11 11 17 14 3 6 6 6 10 7 4 1 7 9 15 7 14 18 18 12 17 11 11 12 14 18 17 20 21 22 23 22 26 27 22 15 17 19 16 22 23 23 23 21 18
5 10 8 4 8 9 7 2 7 12 12 12 10 10 9 9 12 13 14 20 18 21 20 18 16 18 15 15 14 16 16 17 21 24 24 25 23 22 20 15 19 20 19 18 23 26 23 22 21
10 4 6 7 8 13 18 7 6 15 10 6 6 8 7 12 11 14 20 19 15 16 21 21 19 19 20 19 19 16 18 20 21 22 24 24 24 22 22 27 24 20 21 22 23 26 29 28 26
11 4 7 5 10 10 11 10 10 7 3 2 7 7 11 13 14 15 22 23 21 15 21 26 27 23 25 22 25 25 21 18 16 17 17 16 20 23 21 23 24 25 29 30 32 28 30 32 33
5 7 4 5 3 7 10 12 7 5 11 13 13 13 13 13 16 16 20 18 24 23 26 21 20 21 23 23 23 22 21 19 14 13 14 18 22 23 23 23 25 27 31 31 26 28 29 31 32
6 7 6 0 4 6 9 5 10 7 10 11 11 14 13 13 13 15 18 21 15 13 21 21 22 25 26 26 26 26 25 20 19 20 19 20 23 24 24 24 25 26 27 26 28 28 29 29 35
7 10 9 3 7 9 9 10 4 3 7 11 12 14 18 18 18 17 22 20 23 22 23 24 26 25 25 26 29 30 25 21 21 22 20 20 21 22 23 25 26 26 26 26 26 24 25 28 32
Wind_Direction
297 281 238 262 257 67 341 128 142 75 24 39 49 49 74 45 39 96 154 132 131 103 105 128 127 112 136 149 163 165 166 166 169 164 161 148 139 132 129 123 115 110 106 99 92 86 80 75 74
293 285 260 272 254 59 267 42 164 122 201 126 92 73 72 62 87 114 121 124 121 120 135 128 131 117 139 154 161 173 176 169 175 175 172 170 162 145 139 134 129 126 122 116 106 97 90 78 62
294 282 283 248 264 321 66 40 34 265 302 26 98 57 26 110 74 99 123 103 108 123 145 130 137 140 141 159 161 171 181 180 174 183 183 182 177 173 159 152 145 140 138 134 130 123 110 95 56
279 243 252 249 39 140 121 123 188 219 4 350 121 88 74 70 83 114 129 139 145 127 140 145 148 156 151 158 168 173 183 186 184 188 192 192 194 188 185 186 180 191 184 196 220 229 233 253 278
253 270 267 287 19 312 165 185 229 76 147 348 102 68 45 20 82 114 127 147 107 128 118 139 156 159 164 160 168 181 185 190 195 195 197 201 205 200 202 206 211 223 229 235 246 251 253 265 270
283 263 280 282 174 236 210 184 74 63 45 349 65 77 350 306 288 146 145 135 99 102 121 134 156 162 167 172 178 182 193 195 199 201 206 207 213 215 218 220 235 243 248 248 254 257 260 261 269
262 280 290 299 139 175 61 34 88 87 71 303 130 124 192 259 251 150 157 152 151 143 121 141 157 163 166 172 181 189 193 199 205 209 209 214 217 225 235 245 245 254 259 260 259 260 264 267 270
252 282 283 282 29 92 68 73 110 112 155 329 9 127 166 230 230 157 169 158 154 162 138 144 154 160 167 173 179 187 192 201 204 211 215 222 229 235 240 249 254 258 267 267 265 265 266 271 274
275 272 280 357 56 70 81 357 82 28 108 58 75 97 139 173 211 176 144 115 239 207 151 153 161 165 170 174 181 183 189 199 210 217 225 231 240 250 261 254 245 262 268 270 270 269 270 270 271
242 267 292 15 20 72 100 14 33 10 57 48 59 128 141 145 189 221 179 159 163 37 13 348 161 164 180 165 177 171 187 194 210 225 238 241 244 247 249 246 264 256 271 277 269 268 273 281 293
240 278 41 40 9 1 56 69 43 20 42 38 16 48 123 151 207 116 57 47 42 35 344 356 281 170 167 140 161 170 191 187 202 197 227 248 264 267 257 269 265 255 276 273 272 281 305 265 312
270 35 3 49 22 332 6 79 71 34 44 27 50 6 21 16 61 83 105 93 77 271 206 174 259 212 76 125 135 216 176 165 204 191 225 256 278 284 279 304 314 304 306 288 214 255 332 277 299
268 99 326 59 289 3 35 73 95 69 36 31 56 22 17 12 8 12 36 104 151 188 194 115 172 171 85 126 155 145 130 160 176 157 217 252 322 319 342 324 316 309 321 337 272 313 258 238 258
5 358 198 151 129 251 198 77 57 88 43 84 19 26 26 13 21 15 9 34 82 66 37 32 52 21 7 51 105 190 171 171 145 166 148 45 32 15 346 345 338 337 335 334 337 320 319 308 278
282 265 216 202 172 220 285 175 178 113 92 64 25 39 41 39 25 9 4 25 41 76 56 25 22 21 23 353 87 221 177 179 167 195 153 76 60 52 41 352 346 334 342 346 338 349 350 332 324
259 232 234 151 161 136 207 296 101 111 36 76 52 42 56 52 32 15 16 20 30 31 59 36 21 28 352 11 330 350 176 179 164 162 136 95 43 354 55 336 347 331 353 343 353 350 345 337 335
209 253 230 156 184 152 179 141 113 130 78 57 46 57 58 52 45 32 30 34 37 39 34 36 23 14 5 322 327 325 272 263 206 210 175 137 163 241 144 216 330 12 7 348 348 331 336 327 323
335 281 271 154 166 168 251 161 146 129 138 113 66 65 60 57 54 40 36 42 40 43 41 36 27 15 339 311 294 269 253 262 249 234 178 148 208 188 283 358 359 9 349 329 322 334 335 325 318
323 310 316 314 119 154 284 290 147 128 224 146 104 84 88 83 73 54 38 39 39 38 44 35 29 17 353 338 345 333 314 251 217 231 205 185 291 305 329 306 321 346 326 337 321 309 322 320 319
317 302 292 288 218 165 287 276 241 147 173 97 113 114 78 72 76 58 51 35 46 56 28 25 11 3 355 359 350 344 340 323 327 342 105 220 273 272 270 316 312 312 308 306 313 283 303 307 315
316 343 304 335 337 316 256 250 256 151 136 129 119 102 119 85 19 37 19 46 24 39 68 44 23 5 353 352 345 335 325 322 330 326 330 332 316 321 313 308 301 297 296 291 288 287 285 297 294
303 11 335 315 302 287 303 297 279 147 159 163 157 172 104 79 8 353 348 8 349 341 322 25 36 15 343 337 331 325 308 296 308 304 297 290 304 281 268 270 268 281 277 273 282 290 289 272 288
311 335 302 291 284 287 283 268 259 142 173 180 182 175 171 119 339 336 309 313 315 301 310 313 315 351 330 332 324 316 308 305 308 304 307 311 310 303 299 289 278 273 266 262 266 273 282 269 270
304 288 293 270 258 262 262 230 109 133 176 100 145 165 145 283 295 289 295 322 310 316 317 354 344 339 322 315 302 294 304 307 304 302 297 292 289 286 281 299 279 286 273 257 262 267 271 265 267
273 333 316 290 236 237 50 319 308 96 65 49 26 10 13 343 307 306 328 327 346 342 345 332 316 313 304 301 293 289 294 297 300 296 290 284 279 281 291 295 313 311 309 288 274 264 261 253 252
295 336 291 320 315 326 335 304 81 77 79 64 8 354 311 283 325 326 317 322 331 332 322 309 310 304 301 299 291 289 285 280 278 283 289 300 298 302 294 297 301 303 306 297 279 273 263 256 244
9 305 31 327 282 274 275 76 94 89 102 269 349 343 316 17 4 346 332 317 307 323 344 341 323 309 289 293 285 283 286 284 287 287 290 301 301 300 303 294 298 293 294 296 288 278 269 259 249
276 342 273 196 286 300 316 325 64 40 9 348 336 323 313 4 339 327 312 319 335 300 307 299 304 327 332 329 337 332 318 317 317 322 317 307 303 300 301 300 295 290 284 280 285 280 274 268 258
191 228 216 360 308 293 294 298 71 22 345 332 324 338 351 331 309 290 313 325 343 328 333 342 351 345 335 333 333 323 317 318 316 309 303 300 296 293 289 288 288 286 278 277 280 281 283 273 265
298 290 325 299 278 289 320 291 80 312 294 351 348 350 342 334 329 323 328 349 352 349 7 350 338 333 327 322 316 308 308 312 305 297 298 300 292 287 284 282 280 286 285 284 274 278 279 276 268